Beatrice, NE

9:07 PM CST on February 20, 2017 (GMT -0600)
Beatrice Municipal

Weather History for KBIE - January, 2012

Change the Weather History Date:

Saturday, January 28, 2012

  Actual Average Record
Temperature  
Mean Temperature 34 °F -  
Max Temperature 46 °F 35 °F 65 °F (2015)
Min Temperature 21 °F 13 °F -14 °F (1997)
Degree Days  
Heating Degree Days 32    
Moisture  
Dew Point 16 °F    
Average Humidity 56    
Maximum Humidity 86    
Minimum Humidity 23    
Precipitation  
Precipitation 0.00 in - - ()
Sea Level Pressure  
Sea Level Pressure 30.24 in    
Wind  
Wind Speed 12 mph (West)    
Max Wind Speed 25 mph    
Max Gust Speed 33 mph    
Visibility 10 miles    
Events      
Averages and records for this station are not official NWS values.
T = Trace of Precipitation, MM = Missing Value Source: NWS Daily Summary

Daily Weather History Graph

Daily Weather History Graph

Search for Another Location

Airport or City:

Trip Planner

Search our weather history database for the weather conditions in past years. The results will help you decide how hot, cold, wet, or windy it might be!

Date:

Astronomy

Jan. 28, 2012 Rise Set
Actual Time 7:40 AM CST 5:40 PM CST
Civil Twilight 7:11 AM CST 6:09 PM CST
Nautical Twilight 6:38 AM CST 6:42 PM CST
Astronomical Twilight 6:06 AM CST 7:14 PM CST
Moon 10:01 AM CST (1/28) 11:30 PM CST (1/28)
Length of Visible Light 10h 58m
Length of Day
10h 00m
Waxing Crescent, 28% of the Moon is Illuminated
Jan 28
Waxing Crescent
Jan 30
First Quarter
Feb 7
Full
Feb 14
Last Quarter
Feb 21
New

Hourly Weather History & Observations

Time (CST) Temp. Windchill Dew Point Humidity Pressure Visibility Wind Dir Wind Speed Gust Speed Precip Events Conditions
12:15 AM 26.6 °F 17.5 °F 19.4 °F 74% 30.25 in 10.0 mi West 9.2 mph - N/A   Clear
12:35 AM 26.6 °F 17.5 °F 19.4 °F 74% 30.25 in 10.0 mi WNW 9.2 mph - N/A   Clear
12:55 AM 26.6 °F 18.2 °F 19.4 °F 74% 30.24 in 10.0 mi WNW 8.1 mph - N/A   Clear
1:15 AM 26.6 °F 16.8 °F 19.4 °F 74% 30.24 in 10.0 mi WNW 10.4 mph - N/A   Clear
1:35 AM 26.6 °F 16.2 °F 19.4 °F 74% 30.24 in 10.0 mi WNW 11.5 mph - N/A   Clear
1:55 AM 28.4 °F 18.0 °F 19.4 °F 69% 30.25 in 10.0 mi WNW 12.7 mph - N/A   Clear
2:15 AM 26.6 °F 17.5 °F 19.4 °F 74% 30.25 in 10.0 mi WNW 9.2 mph - N/A   Clear
2:35 AM 28.4 °F 18.5 °F 19.4 °F 69% 30.25 in 10.0 mi WNW 11.5 mph - N/A   Clear
2:55 AM 28.4 °F 18.5 °F 19.4 °F 69% 30.26 in 10.0 mi WNW 11.5 mph - N/A   Clear
3:15 AM 28.4 °F 19.7 °F 19.4 °F 69% 30.26 in 10.0 mi WNW 9.2 mph - N/A   Clear
3:35 AM 26.6 °F 19.1 °F 19.4 °F 74% 30.25 in 10.0 mi WNW 6.9 mph - N/A   Clear
3:55 AM 23.0 °F 15.8 °F 17.6 °F 80% 30.24 in 10.0 mi West 5.8 mph - N/A   Clear
4:15 AM 23.0 °F 15.8 °F 17.6 °F 80% 30.24 in 10.0 mi West 5.8 mph - N/A   Clear
4:35 AM 23.0 °F 13.9 °F 19.4 °F 86% 30.24 in 10.0 mi West 8.1 mph - N/A   Clear
4:55 AM 21.2 °F 10.9 °F 17.6 °F 86% 30.25 in 10.0 mi West 9.2 mph - N/A   Clear
5:15 AM 23.0 °F 14.7 °F 17.6 °F 80% 30.25 in 10.0 mi West 6.9 mph - N/A   Clear
5:35 AM 21.2 °F 13.6 °F 17.6 °F 86% 30.24 in 10.0 mi West 5.8 mph - N/A   Clear
5:55 AM 23.0 °F 14.7 °F 17.6 °F 80% 30.24 in 10.0 mi West 6.9 mph - N/A   Clear
6:15 AM 23.0 °F 15.8 °F 17.6 °F 80% 30.24 in 10.0 mi West 5.8 mph - N/A   Clear
6:35 AM 23.0 °F 13.1 °F 19.4 °F 86% 30.25 in 10.0 mi West 9.2 mph - N/A   Clear
6:55 AM 23.0 °F 13.9 °F 17.6 °F 80% 30.25 in 10.0 mi West 8.1 mph - N/A   Clear
7:15 AM 23.0 °F 14.7 °F 17.6 °F 80% 30.26 in 10.0 mi WSW 6.9 mph - N/A   Clear
7:35 AM 23.0 °F 13.1 °F 17.6 °F 80% 30.26 in 10.0 mi WSW 9.2 mph - N/A   Clear
7:55 AM 23.0 °F 12.4 °F 17.6 °F 80% 30.26 in 10.0 mi WSW 10.4 mph - N/A   Clear
8:15 AM 23.0 °F 13.1 °F 17.6 °F 80% 30.27 in 10.0 mi WSW 9.2 mph - N/A   Clear
8:35 AM 24.8 °F 15.3 °F 19.4 °F 80% 30.27 in 10.0 mi West 9.2 mph - N/A   Clear
8:55 AM 26.6 °F 17.5 °F 19.4 °F 74% 30.28 in 10.0 mi West 9.2 mph - N/A   Clear
9:15 AM 28.4 °F 18.0 °F 19.4 °F 69% 30.29 in 10.0 mi West 12.7 mph - N/A   Clear
9:35 AM 30.2 °F 18.9 °F 19.4 °F 64% 30.30 in 10.0 mi West 16.1 mph - N/A   Clear
9:55 AM 32.0 °F 23.0 °F 19.4 °F 60% 30.29 in 10.0 mi West 11.5 mph - N/A   Clear
10:15 AM 32.0 °F 23.6 °F 21.2 °F 64% 30.28 in 10.0 mi West 10.4 mph - N/A   Clear
10:35 AM 35.6 °F 25.9 °F 19.4 °F 52% 30.29 in 10.0 mi West 16.1 mph 20.7 mph N/A   Clear
10:55 AM 37.4 °F 27.2 °F 17.6 °F 45% 30.28 in 10.0 mi West 19.6 mph - N/A   Clear
11:15 AM 37.4 °F 28.2 °F 17.6 °F 45% 30.27 in 10.0 mi WSW 16.1 mph 24.2 mph N/A   Clear
11:35 AM 41.0 °F 31.9 °F 15.8 °F 36% 30.26 in 10.0 mi WSW 19.6 mph 27.6 mph N/A   Scattered Clouds
11:55 AM 41.0 °F 31.4 °F 14.0 °F 33% 30.25 in 10.0 mi WSW 21.9 mph 27.6 mph N/A   Scattered Clouds
12:15 PM 42.8 °F 33.3 °F 14.0 °F 31% 30.25 in 10.0 mi West 24.2 mph 29.9 mph N/A   Clear
12:35 PM 42.8 °F 33.5 °F 15.8 °F 34% 30.24 in 10.0 mi West 23.0 mph 27.6 mph N/A   Clear
12:55 PM 44.6 °F 36.4 °F 15.8 °F 31% 30.23 in 10.0 mi West 20.7 mph 28.8 mph N/A   Clear
1:15 PM 44.6 °F 36.1 °F 14.0 °F 29% 30.22 in 10.0 mi WNW 21.9 mph 27.6 mph N/A   Clear
1:35 PM 44.6 °F 36.9 °F 14.0 °F 29% 30.22 in 10.0 mi WNW 18.4 mph 27.6 mph N/A   Clear
1:55 PM 46.4 °F 39.2 °F 14.0 °F 27% 30.22 in 10.0 mi West 18.4 mph - N/A   Clear
2:15 PM 44.6 °F 36.4 °F 12.2 °F 27% 30.21 in 10.0 mi WNW 20.7 mph 27.6 mph N/A   Clear
2:35 PM 46.4 °F 37.9 °F 12.2 °F 25% 30.20 in 10.0 mi WNW 25.3 mph 33.4 mph N/A   Clear
2:55 PM 46.4 °F 38.1 °F 12.2 °F 25% 30.20 in 10.0 mi WNW 24.2 mph 32.2 mph N/A   Clear
3:15 PM 46.4 °F 38.5 °F 12.2 °F 25% 30.20 in 10.0 mi WNW 21.9 mph 27.6 mph N/A   Clear
3:35 PM 46.4 °F 38.1 °F 10.4 °F 23% 30.20 in 10.0 mi WNW 24.2 mph 28.8 mph N/A   Clear
3:55 PM 46.4 °F 39.0 °F 10.4 °F 23% 30.20 in 10.0 mi WNW 19.6 mph 25.3 mph N/A   Clear
4:15 PM 46.4 °F 39.5 °F 10.4 °F 23% 30.20 in 10.0 mi WNW 17.3 mph - N/A   Clear
4:35 PM 44.6 °F 36.9 °F 10.4 °F 25% 30.20 in 10.0 mi WNW 18.4 mph 24.2 mph N/A   Clear
4:55 PM 42.8 °F 35.8 °F 10.4 °F 27% 30.20 in 10.0 mi WNW 13.8 mph - N/A   Clear
5:15 PM 42.8 °F 36.6 °F 10.4 °F 27% 30.19 in 10.0 mi WNW 11.5 mph - N/A   Clear
5:35 PM 41.0 °F 35.2 °F 10.4 °F 29% 30.19 in 10.0 mi West 9.2 mph - N/A   Clear
5:55 PM 41.0 °F 34.3 °F 10.4 °F 29% 30.19 in 10.0 mi West 11.5 mph - N/A   Clear
6:15 PM 37.4 °F 31.4 °F 10.4 °F 33% 30.20 in 10.0 mi West 8.1 mph - N/A   Clear
6:35 PM 35.6 °F 29.2 °F 10.4 °F 35% 30.20 in 10.0 mi West 8.1 mph - N/A   Clear
6:55 PM 33.8 °F 29.6 °F 12.2 °F 41% 30.20 in 10.0 mi WSW 4.6 mph - N/A   Clear
7:15 PM 33.8 °F 29.6 °F 12.2 °F 41% 30.20 in 10.0 mi WSW 4.6 mph - N/A   Clear
7:35 PM 33.8 °F 28.6 °F 12.2 °F 41% 30.20 in 10.0 mi WSW 5.8 mph - N/A   Clear
7:55 PM 32.0 °F 26.4 °F 12.2 °F 44% 30.19 in 10.0 mi WSW 5.8 mph - N/A   Clear
8:15 PM 33.8 °F 27.7 °F 14.0 °F 44% 30.19 in 10.0 mi West 6.9 mph - N/A   Clear
8:35 PM 33.8 °F 27.7 °F 14.0 °F 44% 30.19 in 10.0 mi West 6.9 mph - N/A   Clear
8:55 PM 33.8 °F 27.7 °F 14.0 °F 44% 30.18 in 10.0 mi West 6.9 mph - N/A   Clear
9:15 PM 32.0 °F 25.6 °F 12.2 °F 44% 30.19 in 10.0 mi WSW 6.9 mph - N/A   Clear
9:35 PM 32.0 °F 25.6 °F 14.0 °F 48% 30.19 in 10.0 mi WSW 6.9 mph - N/A   Clear
9:55 PM 32.0 °F 24.8 °F 14.0 °F 48% 30.18 in 10.0 mi West 8.1 mph - N/A   Clear
10:15 PM 32.0 °F 25.6 °F 14.0 °F 48% 30.18 in 10.0 mi West 6.9 mph - N/A   Clear
10:35 PM 32.0 °F 24.8 °F 14.0 °F 48% 30.18 in 10.0 mi West 8.1 mph - N/A   Scattered Clouds
10:55 PM 32.0 °F 24.2 °F 14.0 °F 48% 30.18 in 10.0 mi WSW 9.2 mph - N/A   Scattered Clouds
11:15 PM 32.0 °F 24.2 °F 14.0 °F 48% 30.18 in 10.0 mi WSW 9.2 mph - N/A   Clear
11:35 PM 32.0 °F 24.2 °F 14.0 °F 48% 30.18 in 10.0 mi WSW 9.2 mph - N/A   Clear
11:55 PM 32.0 °F 24.2 °F 14.0 °F 48% 30.19 in 10.0 mi WSW 9.2 mph - N/A   Clear